Theta_e
315 316 318 316 315 316 318 319 317 316 316 314 316 314 312 312 314 315 314 315 318 316 314 315 317 319 320 320 319 319 328 325 324 323 324 320 321 319 317 317 318 317 317 315 312
317 317 317 317 318 317 320 318 317 316 313 313 315 315 312 312 312 310 312 316 316 312 314 316 319 318 317 318 319 321 325 324 319 319 320 320 319 318 318 317 317 317 315 312 312
316 316 316 314 316 319 318 318 316 313 314 313 314 312 310 308 310 308 310 309 309 311 311 313 317 317 317 318 317 319 324 319 318 318 315 317 317 317 315 316 315 313 312 313 310
315 316 313 314 318 319 318 316 313 313 313 312 311 307 306 309 311 307 307 308 308 309 312 314 316 316 318 316 315 319 317 317 317 312 313 314 310 311 312 313 311 310 310 309 309
316 312 312 310 313 313 315 314 314 312 310 307 306 305 306 309 308 308 308 308 309 310 311 314 315 315 316 314 315 316 315 314 311 310 309 308 308 309 308 308 308 309 308 307 307
314 311 310 309 308 311 315 313 310 307 307 307 306 306 308 307 307 309 308 309 309 311 310 311 312 313 312 311 312 313 313 310 309 309 309 309 310 310 311 309 310 309 309 309 309
314 313 312 310 311 313 313 309 308 307 308 308 306 308 308 307 308 309 309 309 309 309 309 308 308 312 311 310 309 309 310 309 310 311 311 310 312 311 309 310 311 309 309 309 310
312 312 311 312 312 310 309 309 309 307 306 306 307 308 308 308 309 310 310 309 309 309 309 309 311 310 310 309 310 312 311 314 311 312 311 312 311 315 311 310 310 310 309 309 309
310 310 310 310 309 307 305 305 306 305 304 305 308 311 309 309 309 310 310 310 309 309 307 310 311 312 312 315 313 312 312 315 313 313 314 314 315 315 311 311 311 312 312 313 311
306 306 306 306 306 305 305 308 311 311 310 309 310 311 310 310 310 311 310 310 310 310 313 314 316 317 316 314 319 315 314 314 314 315 314 314 314 314 314 314 313 313 314 315 314
306 306 306 306 306 307 308 310 312 313 311 312 311 311 311 310 311 312 312 311 311 312 314 314 320 320 314 314 314 315 314 313 314 314 314 315 315 314 315 314 314 314 315 313 312
305 305 306 307 307 307 311 312 310 311 311 312 312 312 312 312 313 313 312 312 312 314 313 319 318 314 314 314 314 315 314 315 315 315 313 314 315 315 316 316 316 314 312 311 311
305 305 306 306 310 310 309 309 308 308 313 310 311 312 312 313 314 314 313 313 314 317 317 322 315 313 315 315 315 315 314 314 316 315 315 314 314 318 316 314 313 313 311 311 311
305 305 306 306 309 310 309 307 308 307 324 311 312 312 313 313 315 313 312 313 315 316 316 315 312 314 316 315 314 315 314 315 316 315 314 314 313 319 316 314 313 311 310 310 310
306 307 306 310 310 311 308 307 307 310 321 311 312 310 312 315 314 314 312 315 316 314 318 316 314 315 317 315 313 316 314 314 315 314 316 318 316 322 316 315 313 310 311 311 312
305 307 308 309 309 308 308 308 309 320 315 310 312 313 315 315 314 314 313 313 313 315 314 313 312 314 314 313 313 313 314 315 314 316 318 319 317 319 320 318 315 312 312 312 312
305 306 307 309 311 309 308 313 315 327 308 314 314 314 314 315 314 314 314 314 316 316 313 316 317 314 313 316 315 316 314 317 316 325 322 313 312 317 316 314 314 313 312 313 312
305 306 307 307 306 309 311 316 317 310 311 311 313 312 315 313 313 314 314 314 310 311 318 320 316 316 314 315 316 314 313 314 313 315 311 313 311 319 312 312 312 312 314 313 311
306 310 311 305 308 309 316 323 319 312 310 313 313 314 314 313 313 313 313 313 311 309 312 312 316 313 313 314 314 316 316 312 313 313 311 312 316 313 314 310 312 314 311 308 307
310 311 311 306 306 311 319 314 311 310 311 313 314 312 313 312 313 311 311 312 313 310 309 310 310 310 313 313 313 314 312 315 313 317 315 314 316 320 309 315 309 308 308 307 307
312 315 308 306 308 315 321 313 312 310 312 313 312 312 311 312 311 309 310 311 311 311 309 309 308 311 311 313 316 313 313 312 310 309 313 309 318 315 307 314 309 308 308 307 306
311 321 307 306 319 313 314 312 308 311 311 311 311 311 311 310 310 309 310 311 310 311 311 309 309 309 312 310 309 312 314 312 311 314 307 308 307 308 309 312 309 306 307 306 307
312 310 309 309 320 313 311 311 311 311 310 310 311 310 309 309 309 308 309 309 310 311 310 309 309 308 310 308 308 310 310 312 311 310 310 308 308 307 307 308 307 305 306 306 306
313 321 317 311 309 311 311 311 311 310 310 309 309 309 309 309 308 308 307 309 309 310 307 308 308 308 310 308 306 310 309 310 310 310 310 307 308 308 308 306 305 304 305 306 305
312 311 306 313 310 308 309 309 310 311 310 310 310 309 309 307 307 307 307 308 309 310 309 310 309 308 308 308 309 308 307 307 309 310 308 308 307 307 307 305 304 304 305 306 306
313 311 307 310 308 309 305 309 308 308 309 309 310 307 308 308 306 306 306 306 308 309 310 309 309 309 308 308 308 308 307 308 307 307 309 309 309 308 306 304 305 304 306 306 305
309 307 309 309 312 312 307 307 308 307 308 308 308 308 308 309 307 307 306 306 306 308 309 310 309 309 311 310 309 310 309 308 307 307 307 307 307 305 305 306 305 304 305 305 305
Wind_Speed
19 15 12 9 11 11 18 21 18 14 13 10 12 12 15 19 12 6 9 8 10 7 3 5 5 4 5 3 2 1 1 3 3 4 4 5 2 4 3 4 1 5 3 10 9
21 19 16 12 6 15 21 20 19 13 12 15 13 16 19 13 12 14 8 10 8 2 4 5 5 6 2 2 1 2 2 7 6 5 6 6 4 5 2 5 6 6 10 13 7
20 18 14 8 8 19 20 17 13 13 14 17 17 14 13 3 4 7 13 7 4 1 5 7 2 5 3 1 2 3 3 3 6 7 7 5 3 2 3 6 3 3 7 9 5
19 18 16 19 18 19 19 16 14 15 16 16 9 9 4 5 4 10 12 8 5 4 3 0 3 2 3 5 2 3 4 4 3 3 5 4 6 5 8 7 3 4 6 2 3
17 19 19 22 26 22 18 12 13 15 14 10 7 1 4 5 6 12 11 8 6 5 5 2 4 1 1 4 4 2 4 4 4 1 4 5 6 6 11 11 9 3 7 6 7
19 21 26 30 25 19 11 11 12 9 10 6 3 4 6 5 6 10 10 9 7 3 6 7 6 5 7 5 5 3 4 5 3 2 4 4 5 7 4 5 4 1 5 6 6
24 21 22 22 11 10 10 8 6 6 5 2 2 4 16 4 6 10 9 11 10 4 4 5 4 4 2 3 4 1 2 4 4 1 2 5 7 8 10 7 2 6 7 6 5
21 18 19 18 15 12 5 5 6 6 7 5 4 5 5 2 7 12 6 9 11 10 10 6 7 6 4 2 2 3 0 2 2 1 2 3 8 4 6 5 7 9 8 9 10
17 15 13 10 7 6 8 9 8 6 5 3 6 4 5 1 3 9 8 4 5 7 6 4 3 3 2 1 1 3 3 2 3 3 2 2 9 6 6 7 9 8 8 6 8
14 11 9 7 7 8 10 6 15 13 4 2 3 3 3 2 3 5 5 5 2 1 2 4 3 3 4 2 1 4 3 3 4 3 1 8 18 20 14 11 8 7 7 4 5
11 10 8 11 10 4 2 4 2 4 15 7 7 9 5 1 3 8 6 6 2 2 2 2 7 5 6 6 3 3 5 7 3 5 5 6 14 21 9 9 6 6 2 6 6
10 8 4 3 5 2 2 3 3 2 8 8 9 7 5 3 2 12 13 1 1 4 1 4 4 4 2 3 4 1 6 4 3 2 5 9 20 16 5 2 5 6 7 8 7
13 10 2 5 9 11 12 6 4 2 2 4 2 4 3 7 5 7 10 4 5 5 5 5 4 2 2 3 5 4 3 4 2 8 4 8 8 4 4 7 6 4 7 6 6
13 11 5 3 4 3 4 2 3 3 3 6 3 4 1 2 3 3 3 0 1 4 6 5 2 2 1 1 4 2 4 4 6 6 3 5 4 4 4 6 5 8 6 6 7
12 9 9 2 4 3 1 3 3 2 4 4 3 2 4 3 2 2 2 3 5 4 3 1 2 0 3 3 5 3 4 4 2 4 3 3 3 6 4 5 5 8 9 7 6
10 12 4 4 8 3 2 2 2 4 1 2 2 0 4 4 2 3 2 4 3 3 7 4 2 3 5 1 2 5 5 5 2 1 2 1 3 5 3 2 3 8 7 6 5
7 12 11 5 2 3 2 1 5 3 2 0 2 2 4 3 3 4 2 4 2 4 3 3 4 3 2 4 5 2 4 2 5 2 4 3 2 7 3 3 6 8 6 4 2
6 7 12 10 4 3 1 1 5 1 3 1 1 2 1 2 2 2 3 4 3 3 2 4 3 3 3 2 2 2 1 4 3 2 4 4 4 4 4 6 6 5 2 2 5
5 6 3 13 4 2 2 4 2 3 2 4 2 3 2 2 1 3 3 3 4 5 1 1 2 3 1 2 3 1 1 1 1 1 2 4 4 6 7 6 5 3 7 7 7
2 1 2 11 3 1 3 3 2 3 3 2 2 2 3 4 3 3 3 2 4 3 5 2 1 1 4 3 2 2 1 1 2 2 4 5 2 4 2 4 6 5 4 5 5
1 2 6 6 3 1 3 3 4 2 4 4 5 0 4 2 4 1 4 1 2 3 4 2 2 1 1 5 4 2 2 2 1 2 2 4 5 4 8 5 3 4 5 5 6
3 1 7 2 2 2 3 3 2 2 1 1 2 4 5 3 0 1 2 5 4 0 3 3 3 3 2 4 5 3 3 6 3 1 3 3 6 5 7 5 4 6 6 6 5
3 1 3 3 3 3 2 3 4 1 1 1 2 2 2 2 1 3 2 1 1 2 3 2 2 3 2 2 1 3 4 4 3 3 5 1 5 4 6 7 3 6 5 6 7
2 3 3 3 1 2 2 3 3 2 2 2 2 2 1 3 2 1 2 2 3 2 3 3 3 4 5 2 1 4 5 7 6 3 4 8 3 6 5 6 8 6 6 8 8
3 2 1 3 4 4 2 2 3 2 0 1 2 4 3 1 1 2 0 4 3 4 2 1 3 3 7 9 7 8 10 9 11 12 5 2 7 8 9 5 5 6 8 8 8
3 3 1 1 2 4 2 3 2 2 2 3 2 3 3 3 4 2 1 3 1 4 3 4 3 3 5 11 10 10 14 15 17 16 15 17 23 14 1 6 6 7 8 10 8
5 1 1 1 2 3 2 3 4 3 3 2 4 3 5 3 6 5 5 7 4 5 6 5 2 3 5 3 7 9 6 12 7 5 10 12 10 3 5 4 5 8 7 8 8
Wind_Direction
123 118 127 141 169 177 172 166 161 169 169 169 170 169 150 128 116 98 46 330 317 312 326 321 257 200 182 118 22 252 346 253 81 12 69 100 224 115 88 314 223 156 59 115 123
103 103 102 106 135 170 159 156 163 165 162 158 162 156 143 141 108 69 355 334 323 331 333 249 156 222 84 95 25 24 349 28 10 26 32 71 356 36 342 236 227 224 130 137 147
102 99 100 87 76 156 149 141 157 156 156 152 155 160 160 137 177 42 353 352 354 45 323 324 72 293 95 249 30 33 42 94 51 29 0 358 278 225 295 267 304 27 38 132 135
104 100 95 76 104 117 128 139 154 151 146 145 164 156 202 266 141 3 354 11 26 43 349 244 223 235 141 140 99 127 50 7 71 41 354 332 340 293 229 252 42 90 75 30 279
99 99 98 83 111 99 90 133 138 138 140 140 168 186 275 82 45 349 5 13 29 32 24 297 229 74 175 97 190 96 129 94 86 352 301 327 273 256 279 276 294 302 166 219 254
89 93 100 105 96 80 97 131 132 148 152 161 228 292 255 79 343 2 19 35 45 33 41 16 9 360 45 34 8 49 122 85 92 343 281 315 278 335 264 139 88 163 269 254 229
90 97 98 101 99 115 136 141 144 161 166 189 254 127 54 91 15 23 43 49 56 43 86 42 341 30 344 109 321 96 194 175 178 62 346 313 284 220 240 249 216 256 221 224 202
85 88 99 123 132 135 143 150 172 149 123 124 240 339 75 31 58 37 51 57 53 73 95 84 73 92 38 137 190 252 264 237 121 333 118 357 277 316 142 173 231 243 212 197 203
75 86 100 107 125 129 116 110 123 122 63 327 308 227 97 5 46 28 38 39 69 58 75 68 57 99 170 273 229 217 276 201 149 115 345 176 284 315 156 227 239 244 246 233 202
70 73 80 101 119 115 119 123 87 46 346 318 330 85 37 55 15 2 13 15 25 242 136 35 43 64 18 28 338 338 358 337 287 119 358 274 267 273 258 250 253 266 254 204 127
48 59 90 118 123 141 306 247 199 48 43 46 48 79 83 316 69 32 356 326 230 267 101 36 63 68 53 12 335 1 316 291 339 82 346 268 280 284 272 260 253 249 171 119 137
36 45 52 256 239 326 343 45 44 81 83 48 97 80 75 340 64 22 2 295 261 72 86 69 98 62 6 304 283 301 294 346 317 86 327 289 289 290 314 160 146 150 135 141 119
30 26 96 72 83 69 92 82 101 30 138 69 51 49 346 346 43 10 355 337 38 65 52 114 92 124 302 253 342 110 30 16 281 309 252 310 286 162 49 92 79 46 77 86 128
25 32 104 102 84 104 59 47 52 29 108 4 19 55 324 340 85 17 9 341 57 79 74 82 82 342 307 79 341 305 31 335 317 5 288 32 279 24 157 139 181 167 167 127 116
27 34 58 101 116 61 60 33 21 24 85 6 37 322 285 69 160 78 317 318 50 108 114 209 144 96 275 40 344 32 354 326 313 307 328 201 71 273 109 150 178 100 87 84 84
41 34 58 56 55 61 25 21 54 43 68 13 301 246 169 55 81 152 117 69 333 95 57 81 24 337 20 40 344 316 265 248 159 276 24 28 109 294 48 325 72 90 86 76 67
38 41 53 58 71 9 18 258 35 65 259 79 49 18 52 36 82 13 47 62 18 52 13 172 141 115 290 251 200 281 45 347 355 355 221 198 43 247 17 76 56 83 55 34 347
35 39 38 39 18 11 5 59 69 46 81 60 182 194 74 331 116 157 206 153 70 324 181 167 315 192 153 329 308 20 282 134 213 326 287 155 238 272 124 83 72 83 180 57 38
51 46 35 351 359 52 271 53 65 49 66 158 189 225 118 140 334 242 29 54 51 9 324 344 161 140 311 351 337 155 30 12 36 258 7 233 231 50 33 136 115 92 52 25 13
40 214 30 359 12 322 69 103 100 5 325 306 300 316 154 133 221 225 153 14 117 9 328 63 289 191 123 235 163 338 6 19 354 34 292 283 237 209 344 123 61 46 43 13 5
114 262 346 352 353 303 78 63 109 82 348 346 17 50 15 90 329 90 78 77 8 129 316 357 123 163 79 199 162 152 212 228 33 180 228 316 270 160 190 168 93 38 44 29 18
297 39 344 356 60 12 53 40 323 120 238 45 301 6 13 24 201 45 25 63 43 35 360 52 330 262 172 69 31 337 305 186 131 221 237 171 275 140 156 171 235 51 60 17 3
349 11 356 35 59 86 162 97 20 151 64 343 104 351 353 29 316 26 67 30 113 292 15 95 251 333 324 48 120 264 216 258 338 56 229 164 265 132 174 207 32 88 41 11 343
341 355 345 61 253 45 117 99 106 38 42 347 36 293 264 197 104 51 204 112 41 358 34 13 290 218 206 159 151 221 218 202 192 167 228 224 250 202 168 341 2 36 15 8 331
17 56 39 350 32 20 338 350 125 158 332 321 204 282 324 309 215 223 17 151 183 143 204 252 261 269 283 292 278 254 249 232 213 224 220 269 287 289 328 18 6 353 356 346 324
13 4 210 43 290 290 126 63 339 115 209 159 243 95 221 266 32 359 2 197 248 150 217 176 281 316 287 262 248 262 251 239 239 242 246 253 270 272 280 23 354 339 338 327 319
6 270 244 214 315 297 50 48 49 351 117 332 327 321 226 306 4 342 328 307 292 182 200 176 229 1 268 325 318 282 254 231 211 208 225 242 260 28 3 356 335 309 314 302 336